Medicine Lodge, KS

7:37 AM CST on December 13, 2019 (GMT -0600)
Medicine Lodge

Weather History for KP28 - October, 2019

Change the Weather History Date:

Sunday, October 27, 2019

  Actual Average Record
Temperature  
Mean Temperature 43 °F 54 °F  
Max Temperature 51 °F 67 °F 92 °F (1950)
Min Temperature 35 °F 42 °F 19 °F (2012)
Degree Days  
Heating Degree Days 22 11  
Month to date heating degree days 252 189  
Since 1 July heating degree days 252 223  
Cooling Degree Days 0 0  
Month to date cooling degree days 23 37  
Year to date cooling degree days 1837 1768  
Moisture  
Dew Point 34 °F    
Average Humidity 73    
Maximum Humidity 85    
Minimum Humidity 60    
Precipitation  
Precipitation 0.00 in 0.08 in 1.28 in (1899)
Month to date precipitation 1.79 2.53  
Year to date precipitation 30.37 24.98  
Snow  
Snow 0.00 in 0.00 in - ()
Month to date snowfall 0.0 0.0  
Since 1 July snowfall 0.0 0.0  
Since 1 September snowfall 0.0 0.0  
Snow Depth 0.00 in    
Sea Level Pressure  
Sea Level Pressure 29.94 in    
Wind  
Wind Speed 16 mph (NNE)    
Max Wind Speed 30 mph    
Max Gust Speed 40 mph    
T = Trace of Precipitation, MM = Missing Value Source: NWS Daily Summary

Daily Weather History Graph

Daily Weather History Graph

Search for Another Location

Airport or City:

Astronomy

Oct. 27, 2019 Rise Set
Actual Time 7:53 AM CDT 6:42 PM CDT
Civil Twilight 7:26 AM CDT 7:08 PM CDT
Nautical Twilight 6:56 AM CDT 7:39 PM CDT
Astronomical Twilight 6:25 AM CDT 8:09 PM CDT
Moon 7:06 AM CDT (10/27) 6:51 PM CDT (10/27)
Length of Visible Light 11h 42m
Length of Day
10h 48m
Waning Crescent, 0% of the Moon is Illuminated
Oct 27
Waning Crescent
Oct 27
New
Nov 4
First Quarter
Nov 12
Full
Nov 19
Last Quarter

Hourly Weather History & Observations

Time (CDT) Temp. Windchill Dew Point Humidity Pressure Visibility Wind Dir Wind Speed Gust Speed Precip Events Conditions
12:56 AM 46.0 °F 42.5 °F 37.9 °F 73% 29.74 in - ESE 6.9 mph - N/A   Unknown
1:56 AM 44.1 °F 40.1 °F 37.0 °F 76% 29.76 in - East 6.9 mph - N/A   Unknown
2:56 AM 45.0 °F 40.6 °F 37.0 °F 74% 29.75 in - ESE 8.1 mph - N/A   Unknown
3:56 AM 43.0 °F 38.2 °F 36.0 °F 76% 29.76 in - East 8.1 mph - N/A   Unknown
4:56 AM 44.1 °F 40.8 °F 35.1 °F 71% 29.76 in - East 5.8 mph - N/A   Unknown
5:56 AM 37.9 °F 33.5 °F 34.0 °F 86% 29.81 in - North 5.8 mph - N/A   Unknown
6:56 AM 37.9 °F 33.5 °F 34.0 °F 86% 29.84 in - North 5.8 mph - N/A   Unknown
8:56 AM 42.1 °F 32.3 °F 36.0 °F 79% 29.90 in - NNE 24.2 mph 34.5 mph N/A   Unknown
9:56 AM 44.1 °F 35.9 °F 35.1 °F 71% 29.95 in - North 19.6 mph 39.1 mph N/A   Unknown
10:56 AM 46.9 °F - 35.1 °F 63% 29.96 in - NNE 25.3 mph 35.7 mph N/A   Unknown
11:56 AM 48.0 °F - 35.1 °F 61% 29.97 in - North 26.5 mph 35.7 mph N/A   Unknown
12:56 PM 48.0 °F - 35.1 °F 61% 30.00 in - North 21.9 mph 34.5 mph N/A   Unknown
1:56 PM 48.9 °F - 35.1 °F 59% 29.99 in - North 21.9 mph 29.9 mph N/A   Unknown
2:56 PM 46.9 °F - 34.0 °F 61% 30.00 in - North 19.6 mph 31.1 mph N/A   Unknown
3:56 PM 46.0 °F 38.8 °F 34.0 °F 63% 30.03 in - North 18.4 mph 27.6 mph N/A   Unknown
4:56 PM 46.9 °F - 34.0 °F 61% 30.02 in - North 18.4 mph 25.3 mph N/A   Unknown
5:56 PM 46.9 °F - 34.0 °F 61% 30.04 in - North 16.1 mph 25.3 mph N/A   Unknown
6:56 PM 43.0 °F 35.1 °F 32.0 °F 65% 30.05 in - North 17.3 mph 26.5 mph N/A   Unknown
7:56 PM 42.1 °F 33.1 °F 32.0 °F 67% 30.07 in - North 20.7 mph 29.9 mph N/A   Unknown
9:56 PM 39.9 °F 31.1 °F 30.9 °F 70% 30.12 in - North 17.3 mph 29.9 mph N/A   Unknown
10:56 PM 37.9 °F 30.0 °F 30.9 °F 76% 30.14 in - North 12.7 mph 20.7 mph N/A   Unknown